User: anonymous
Location: Key Biscayne
(25.6930°N, 80.1630°W)
Time: 05:26:40
(UTC-04:00)
Language:

CZ-2D R/B - Orbit

View from above orbital plane
View from above orbital plane
View from above satellite
View from above satellite

Ground track
Ground track

The orbit data is extracted from the following two-line orbital elements,

1 28738U 05024B   14211.20779569  .00001728  00000-0  11999-3 0  8105
2 28738 097.6284 246.1263 0013438 020.9224 339.2551 15.06815684496942
Epoch (UTC): 30 July 2014 04:59:13
Eccentricity: 0.0013438
inclination: 97.6284°
perigee height: 536 km
apogee height: 555 km
right ascension of ascending node: 246.1263°
argument of perigee: 20.9224°
revolutions per day: 15.06815684
mean anomaly at epoch: 339.2551°
orbit number at epoch: 49694

The dashed part of the orbit path shows where the satellite is in the earth's shadow,  

DLR